Dallas Love, TX

11:57 AM CDT on May 24, 2017 (GMT -0500)
Dallas Love

Weather History for KDAL - January, 2013

Change the Weather History Date:

Friday, January 25, 2013

  Actual Average Record
Temperature  
Mean Temperature 52 °F -  
Max Temperature 57 °F 55 °F 79 °F (2005)
Min Temperature 48 °F 37 °F 30 °F (2014)
Degree Days  
Heating Degree Days 12    
Growing Degree Days 2 (Base 50)    
Moisture  
Dew Point 44 °F    
Average Humidity 78    
Maximum Humidity 94    
Minimum Humidity 61    
Precipitation  
Precipitation 0.00 in - - ()
Sea Level Pressure  
Sea Level Pressure 30.11 in    
Wind  
Wind Speed 5 mph (NNW)    
Max Wind Speed 12 mph    
Max Gust Speed -    
Visibility 6 miles    
Events Fog    
Averages and records for this station are not official NWS values.
T = Trace of Precipitation, MM = Missing Value Source: NWS Daily Summary

Daily Weather History Graph

Daily Weather History Graph

Search for Another Location

Airport or City:

Trip Planner

Search our weather history database for the weather conditions in past years. The results will help you decide how hot, cold, wet, or windy it might be!

Date:

Astronomy

Jan. 25, 2013 Rise Set
Actual Time 7:26 AM CST 5:53 PM CST
Civil Twilight 7:00 AM CST 6:19 PM CST
Nautical Twilight 6:30 AM CST 6:49 PM CST
Astronomical Twilight 6:01 AM CST 7:18 PM CST
Moon 4:51 PM CST (1/25) 6:06 AM CST (1/25)
Length of Visible Light 11h 19m
Length of Day
10h 27m
Waxing Gibbous, 98% of the Moon is Illuminated
Jan 25
Waxing Gibbous
Jan 26
Full
Feb 3
Last Quarter
Feb 10
New
Feb 17
First Quarter

Hourly Weather History & Observations

Time (CST) Temp. Dew Point Humidity Pressure Visibility Wind Dir Wind Speed Gust Speed Precip Events Conditions
12:53 AM 57.0 °F 45.0 °F 64% 30.03 in 10.0 mi West 3.5 mph - N/A   Mostly Cloudy
1:53 AM 54.0 °F 44.1 °F 69% 30.03 in 10.0 mi West 3.5 mph - N/A   Mostly Cloudy
2:42 AM 51.8 °F 44.6 °F 76% 30.06 in 8.0 mi NW 6.9 mph - N/A   Mostly Cloudy
2:53 AM 52.0 °F 45.0 °F 77% 30.05 in 7.0 mi Calm Calm - N/A   Mostly Cloudy
3:01 AM 51.8 °F 46.4 °F 82% 30.06 in 7.0 mi NW 3.5 mph - N/A   Overcast
3:53 AM 52.0 °F 46.9 °F 83% 30.04 in 7.0 mi West 3.5 mph - N/A   Mostly Cloudy
4:25 AM 51.8 °F 48.2 °F 88% 30.04 in 2.5 mi Calm Calm - N/A   Overcast
4:40 AM 51.8 °F 46.4 °F 82% 30.06 in 4.0 mi WNW 5.8 mph - N/A   Overcast
4:53 AM 51.1 °F 48.0 °F 89% 30.04 in 2.5 mi Calm Calm - N/A   Overcast
5:05 AM 51.8 °F 48.2 °F 88% 30.06 in 0.8 mi WNW 3.5 mph - N/A   Overcast
5:10 AM 51.8 °F 48.2 °F 88% 30.06 in 0.2 mi WNW 3.5 mph - N/A Fog Fog
5:27 AM 51.8 °F 48.2 °F 88% 30.07 in 0.5 mi NW 4.6 mph - N/A Fog Fog
5:45 AM 51.8 °F 48.2 °F 88% 30.07 in 0.2 mi NW 5.8 mph - N/A Fog Fog
5:53 AM 51.1 °F 48.9 °F 92% 30.06 in 0.2 mi NW 3.5 mph - N/A Fog Fog
6:00 AM 51.8 °F 50.0 °F 94% 30.07 in 0.2 mi NW 4.6 mph - N/A Fog Fog
6:14 AM 51.8 °F 50.0 °F 94% 30.08 in 0.5 mi NW 4.6 mph - N/A Fog Fog
6:39 AM 51.8 °F 50.0 °F 94% 30.09 in 1.0 mi NW 4.6 mph - N/A   Overcast
6:53 AM 52.0 °F 50.0 °F 93% 30.09 in 1.5 mi North 8.1 mph - N/A   Overcast
6:57 AM 51.8 °F 50.0 °F 94% 30.11 in 2.5 mi North 11.5 mph - N/A   Overcast
7:53 AM 48.9 °F 46.9 °F 93% 30.13 in 2.0 mi North 8.1 mph - N/A   Overcast
8:53 AM 50.0 °F 46.0 °F 86% 30.15 in 2.0 mi NNE 9.2 mph - N/A   Overcast
9:39 AM 50.0 °F 44.6 °F 82% 30.17 in 2.5 mi ENE 5.8 mph - N/A   Haze
9:53 AM 50.0 °F 45.0 °F 83% 30.19 in 3.0 mi NNE 8.1 mph - N/A   Haze
10:53 AM 50.0 °F 43.0 °F 77% 30.19 in 4.0 mi North 8.1 mph - N/A   Haze
11:53 AM 48.0 °F 41.0 °F 77% 30.19 in 7.0 mi NNW 10.4 mph - N/A   Overcast
12:47 PM 48.2 °F 41.0 °F 76% 30.16 in 7.0 mi North 8.1 mph - N/A   Overcast
12:53 PM 48.9 °F 41.0 °F 74% 30.16 in 7.0 mi North 9.2 mph - N/A   Overcast
1:46 PM 51.8 °F 41.0 °F 67% 30.15 in 8.0 mi North 6.9 mph - N/A   Overcast
1:53 PM 52.0 °F 41.0 °F 66% 30.15 in 8.0 mi NNW 10.4 mph - N/A   Overcast
2:53 PM 52.0 °F 41.0 °F 66% 30.14 in 9.0 mi NNW 8.1 mph - N/A   Overcast
3:53 PM 52.0 °F 41.0 °F 66% 30.15 in 9.0 mi NNW 10.4 mph - N/A   Overcast
4:53 PM 51.1 °F 39.9 °F 66% 30.16 in 10.0 mi NW 10.4 mph - N/A   Overcast
5:53 PM 52.0 °F 39.0 °F 61% 30.15 in 10.0 mi North 10.4 mph - N/A   Overcast
6:53 PM 51.1 °F 37.9 °F 61% 30.16 in 10.0 mi North 6.9 mph - N/A   Overcast
7:53 PM 51.1 °F 37.9 °F 61% 30.17 in 10.0 mi North 5.8 mph - N/A   Overcast
8:53 PM 51.1 °F 37.9 °F 61% 30.17 in 10.0 mi NNE 4.6 mph - N/A   Overcast
9:53 PM 50.0 °F 37.0 °F 61% 30.18 in 10.0 mi NE 6.9 mph - N/A   Overcast
10:53 PM 50.0 °F 37.0 °F 61% 30.18 in 10.0 mi NNE 6.9 mph - N/A   Overcast
11:53 PM 48.9 °F 37.0 °F 64% 30.21 in 10.0 mi North 6.9 mph - N/A   Overcast